Location: Lafig�re
(44.4503°N, 4.0357°E)
Time: 14:03:55
(UTC+00:00)

Vanguard 2 Rocket - Pass Details

Date: 01 February 2021
Orbit: 554 x 3325 km, 32.9° (Epoch: 06 March)

Event Time Altitude Azimuth Distance (km) Brightness Sun altitude
Rises 14:11:08 0° 254° (WSW) 7,232 12.3 21.5°
Reaches altitude 10° 14:16:29 10° 250° (WSW) 6,035 12.1 20.9°
Maximum altitude 14:33:15 51° 182° (S) 2,767 10.2 19.1°
Drops below altitude 10° 14:43:34 10° 111° (ESE) 3,844 9.9 17.9°
Sets 14:46:11 0° 106° (ESE) 4,523 10.2 17.6°
